Location: Foulognes
(49.1413°N, 0.8183°W)
Time: 17:40:54
(UTC+00:00)

Cosmos 1766 Rocket - Pass Details

Date: 21 October 2019
Orbit: 605 x 633 km, 82.5° (Epoch: 13 November)

Event Time Altitude Azimuth Distance (km) Brightness Sun altitude
Rises 18:42:48 0° 357° (N) 2,874 7.1 -17.1°
Reaches altitude 10° 18:45:13 10° 8° (N) 1,965 6.1 -17.5°
Enters shadow 18:48:35 31° 56° (ENE) 1,072 4.3 -18.0°
